Weather History for KGIF - December, 2012

Change the Weather History Date:

Thursday, December 6, 2012

  Actual Average Record
Temperature  
Mean Temperature 70 °F -  
Max Temperature 80 °F 76 °F 85 °F (1972)
Min Temperature 61 °F 53 °F 36 °F (1981)
Cooling Degree Days 6    
Growing Degree Days 20 (Base 50)    
Moisture  
Dew Point 60 °F    
Average Humidity 75    
Maximum Humidity 97    
Minimum Humidity 47    
Precipitation  
Precipitation 0.00 in - - ()
Sea Level Pressure  
Sea Level Pressure 30.01 in    
Wind  
Wind Speed 5 mph (ENE)    
Max Wind Speed 12 mph    
Max Gust Speed -    
Visibility 10 miles    
Events      
Averages and records for this station are not official NWS values.
T = Trace of Precipitation, MM = Missing Value Source: NWS Daily Summary

Daily Weather History Graph

Daily Weather History Graph

Search for Another Location

Airport or City:

Trip Planner

Search our weather history database for the weather conditions in past years. The results will help you decide how hot, cold, wet, or windy it might be!

Date:

Astronomy

Dec. 06, 2012 Rise Set
Actual Time 7:05 AM EST 5:31 PM EST
Civil Twilight 6:39 AM EST 5:56 PM EST
Nautical Twilight 6:10 AM EST 6:26 PM EST
Astronomical Twilight 5:41 AM EST 6:54 PM EST
Moon No Moon Rise 12:25 PM EST (12/6)
Length of Visible Light 11h 17m
Length of Day
10h 26m
Waning Gibbous, 49% of the Moon is Illuminated
Dec 6
Waning Gibbous
Dec 13
New
Dec 20
First Quarter
Dec 28
Full
Jan 4
Last Quarter

Hourly Weather History & Observations

Time (EST) Temp. Heat Index Dew Point Humidity Pressure Visibility Wind Dir Wind Speed Gust Speed Precip Events Conditions
12:53 AM 62.1 °F - 60.1 °F 93% 30.07 in 10.0 mi NNE 3.5 mph - N/A   Partly Cloudy
1:53 AM 62.1 °F - 60.1 °F 93% 30.06 in 10.0 mi Calm Calm - N/A   Clear
2:53 AM 62.1 °F - 60.1 °F 93% 30.05 in 10.0 mi NE 4.6 mph - N/A   Partly Cloudy
3:53 AM 61.0 °F - 60.1 °F 97% 30.03 in 10.0 mi NE 6.9 mph - N/A   Mostly Cloudy
4:53 AM 62.1 °F - 60.1 °F 93% 30.01 in 10.0 mi NE 4.6 mph - N/A   Mostly Cloudy
5:53 AM 61.0 °F - 59.0 °F 93% 30.02 in 10.0 mi NE 3.5 mph - N/A   Scattered Clouds
6:53 AM 61.0 °F - 59.0 °F 93% 30.04 in 10.0 mi NNE 3.5 mph - N/A   Mostly Cloudy
7:53 AM 64.0 °F - 60.1 °F 87% 30.05 in 10.0 mi NNE 4.6 mph - N/A   Overcast
8:53 AM 66.0 °F - 61.0 °F 84% 30.07 in 10.0 mi North 5.8 mph - N/A   Overcast
9:53 AM 72.0 °F - 62.1 °F 71% 30.07 in 10.0 mi ENE 6.9 mph - N/A   Clear
10:53 AM 77.0 °F - 61.0 °F 58% 30.06 in 10.0 mi ENE 6.9 mph - N/A   Clear
11:53 AM 78.1 °F - 60.1 °F 54% 30.03 in 10.0 mi East 8.1 mph - N/A   Scattered Clouds
12:53 PM 80.1 °F 80.9 °F 60.1 °F 50% 29.99 in 10.0 mi ENE 8.1 mph - N/A   Mostly Cloudy
1:53 PM 80.1 °F 80.7 °F 59.0 °F 48% 29.96 in 10.0 mi East 6.9 mph - N/A   Mostly Cloudy
2:53 PM 80.1 °F 80.6 °F 57.9 °F 47% 29.95 in 10.0 mi ENE 11.5 mph - N/A   Clear
3:53 PM 80.1 °F 80.6 °F 57.9 °F 47% 29.95 in 10.0 mi East 8.1 mph - N/A   Clear
4:53 PM 77.0 °F - 57.9 °F 52% 29.96 in 10.0 mi ENE 6.9 mph - N/A   Clear
5:53 PM 73.0 °F - 59.0 °F 61% 29.97 in 10.0 mi ENE 8.1 mph - N/A   Mostly Cloudy
6:53 PM 72.0 °F - 60.1 °F 66% 29.98 in 10.0 mi ENE 10.4 mph - N/A   Scattered Clouds
7:53 PM 69.1 °F - 61.0 °F 75% 29.99 in 10.0 mi ENE 5.8 mph - N/A   Clear
8:53 PM 68.0 °F - 61.0 °F 78% 30.01 in 10.0 mi East 6.9 mph - N/A   Clear
9:53 PM 64.9 °F - 61.0 °F 87% 30.01 in 10.0 mi ENE 3.5 mph - N/A   Partly Cloudy
10:53 PM 64.0 °F - 61.0 °F 90% 30.00 in 10.0 mi Calm Calm - N/A   Clear
11:53 PM 63.0 °F - 61.0 °F 93% 29.99 in 10.0 mi NE 3.5 mph - N/A   Clear